GW4836 Weather Reports


Display with metric or nautical units.
time (UTC)temp
F
wind
direction
speed
MPH
gust
MPH
rain 1hr
in
rain 24hr
in
rain mn
in
humidity
%
barometer
mb
20260504050018 54 24 16.0 25.0 0.00 0.00 0.00 37 1011.2
20260504044518 55 35 19.0 27.0 0.00 0.00 0.00 38 1011.1
20260504043019 56 24 13.0 21.0 0.00 0.00 0.00 39 1010.4
20260504041516 56 24 11.0 17.0 0.00 0.00 0.00 38 1010.0
20260504040018 57 53 12.0 17.0 0.00 0.00 0.00 38 1009.8
20260504034516 57 48 10.0 15.0 0.00 0.00 0.00 37 1009.5
20260504033015 58 11 10.0 17.0 0.00 0.00 0.00 35 1009.1
20260504031514 59 36 11.0 19.0 0.00 0.00 0.00 35 1008.8
20260504030013 60 34 11.0 17.0 0.00 0.00 0.00 35 1008.6
20260504024513 61 32 12.0 18.0 0.00 0.00 0.00 33 1008.4
20260504023012 63 37 10.0 17.0 0.00 0.00 0.00 30 1008.2
20260504021510 65 41 11.0 19.0 0.00 0.00 0.00 27 1008.4
20260504020011 67 327 9.0 13.0 0.00 0.00 0.00 21 1008.3
20260504014508 68 17 10.0 17.0 0.00 0.00 0.00 20 1008.5
20260504013007 70 18 10.0 17.0 0.00 0.00 0.00 19 1008.5
20260504011506 71 327 12.0 16.0 0.00 0.00 0.00 19 1008.5
20260504010004 72 319 11.0 17.0 0.00 0.00 0.00 19 1008.4
20260504004505 72 317 13.0 19.0 0.00 0.00 0.00 18 1008.6
20260504003002 72 331 10.0 21.0 0.00 0.00 0.00 18 1008.8
20260504001501 73 13 17.0 23.0 0.00 0.00 0.00 18 1008.8
20260504000139 72 324 13.0 23.0 0.00 0.00 0.00 18 1009.0
20260504000000 73 313 13.0 23.0 0.00 0.00 0.00 18 1008.9
20260503234602 73 298 14.0 22.0 0.00 0.00 0.00 18 1008.9
20260503233059 73 311 13.0 22.0 0.00 0.00 0.00 19 1009.0
20260503231559 73 335 14.0 23.0 0.00 0.00 0.00 18 1009.0
20260503230057 73 341 10.0 20.0 0.00 0.00 0.00 19 1009.1
20260503224556 73 306 13.0 21.0 0.00 0.00 0.00 19 1009.4
20260503223055 73 277 14.0 20.0 0.00 0.00 0.00 18 1009.5
20260503221557 73 294 13.0 21.0 0.00 0.00 0.00 19 1009.5
20260503220052 73 298 17.0 28.0 0.00 0.00 0.00 18 1009.7
20260503214548 72 294 9.0 24.0 0.00 0.00 0.00 19 1009.8
20260503213048 72 287 11.0 24.0 0.00 0.00 0.00 21 1009.8
20260503211549 72 311 17.0 21.0 0.00 0.00 0.00 20 1010.1
20260503210043 72 313 5.0 20.0 0.00 0.00 0.00 21 1010.4
20260503204543 72 330 11.0 23.0 0.00 0.00 0.00 20 1010.5
20260503203057 71 318 8.0 18.0 0.00 0.00 0.00 21 1010.5
20260503201539 71 327 11.0 23.0 0.00 0.00 0.00 21 1010.7
20260503200037 70 332 13.0 25.0 0.00 0.00 0.00 20 1010.9
20260503194538 71 13 12.0 20.0 0.00 0.00 0.00 20 1011.3
20260503193033 71 309 12.0 20.0 0.00 0.00 0.00 21 1011.4
20260503191533 70 288 13.0 21.0 0.00 0.00 0.00 20 1011.6
20260503190037 70 302 14.0 19.0 0.00 0.00 0.00 21 1011.8
20260503184529 69 288 13.0 33.0 0.00 0.00 0.00 21 1011.9
20260503183030 69 295 10.0 20.0 0.00 0.00 0.00 21 1012.0
20260503181528 68 288 9.0 20.0 0.00 0.00 0.00 22 1012.2
20260503180029 69 286 9.0 20.0 0.00 0.00 0.00 22 1012.4
20260503174523 69 328 13.0 23.0 0.00 0.00 0.00 21 1012.5
20260503173038 69 333 9.0 15.0 0.00 0.00 0.00 22 1012.6
20260503171525 68 288 13.0 18.0 0.00 0.00 0.00 22 1012.6
20260503081554 39 300 0.0 0.0 0.00 0.00 0.00 73 1015.4